FENGYUN 1C DEB, 29735

Orbit data source: Space-Track

FENGYUN 1C DEB, 29735 is space debris in SSO originally from a launch on Mon, 10 May 1999 UTC launched from the Taiyaun Space Center, China (TSC). Fengyun 1C debris stems from the Chinese weather satellite Fengyun-1C, which was intentionally destroyed by a Chinese anti-satellite missile in 2007. This event dramatically increased the amount of space debris, with thousands of trackable fragments posing hazards to satellites and human spaceflight. The Fengyun 1C debris cloud has become a focal point in discussions about space sustainability and the need for international regulations to prevent the creation of new debris.

Loading next visibility...
Identifier
29735, 1999-025Z
Orbit
SSO
Country
Flag of CNCN / PRC
Related business
Manufacturer
Unknown
Mission
Spacecraft
Bus & Motor
Unknown
Mass
Unknown
Launch date (UTC)
1999-05-10 (27 years ago)
Launch vehicle
Unknown
Launch site
Taiyaun Space Center, China (TSC)
Object type
Payload
Rocket body
Debris
Shape & HBR
Unknown shape, 0.2 m
Radar Cross Section
Medium (>0.1 m² and <1 m²)

Expand to show TLE details & history
Last TLE update: 11 hours ago

TLE from 11 hours ago
0 FENGYUN 1C DEB
1 29735U 99025Z   26164.42806461  .00001897  00000-0  32451-2 0  9993
2 29735  99.3888  54.0062 0699717 129.7547 236.7364 12.75684001897441
Epoch: 2026-06-13T10:16Z
TLE epoch observation values (Epoch: 2026-06-13T10:16:24.782Z)
Latitude
-0.00005°
Longitude
-1.84035°
Altitude
1,683.572 km
Speed
6.885 km/s
True Right ascension
03h 36m 01s
True Declination
0° 00' 00"
Sunlit
Object was in daylight at epoch
Visualization orbit readout
Latitude
Unknown
Longitude
Unknown
Altitude
Unknown
Speed
Unknown
Apparent Right ascension
Unknown
Apparent Declination
Unknown
Sunlit
N/A
Visualization observer readout
Local Sidereal Time
07:59:06
Azimuth
Unknown
Elevation
Unknown
Doppler factor
Unknown
Orbital elements
Apogee altitude
1,897.427 km
Perigee altitude
815.052 km
Semi-major axis
7,734.376 km
Eccentricity
0.06997
Inclination
99.3888°
RAAN
54.0062°
Arg. of periapsis
129.7547°
True anomaly
230.35255°
Mean anomaly
236.7364°
Eccentric anomaly
233.51312°
Mean motion
3.19084 °/min
Orbital period
112.82 mins
BSTAR
0.0032451
Loading maneuver chart data...
Computing Atmospheric mass density...

Documentation

Showing up to 5 results
|